"2009-03-31 00:00:30",757778,14.5,344.8,5.083,1.228,3.328,99.55103,-1.844,-0.62,24.02,0,109.5,13.61,-1.10,306.8
"2009-03-31 00:01:00",757779,14.5,351,4.882,0.665,3.486,99.55038,-1.846,-0.593,23.74,0,109.5,13.61,-1.10,313.0
"2009-03-31 00:01:30",757780,12.72,343.6,6.984,1.586,3.669,99.55009,-1.846,-0.601,23.82,0,109.5,13.61,-1.10,305.6
"2009-03-31 00:02:00",757781,13.1,346.7,7.432,2.019,3.964,99.54981,-1.847,-0.585,24.09,0,109.5,13.61,-1.10,308.7
"2009-03-31 00:02:30",757782,16.38,339.6,3.989,1.367,3.818,99.55038,-1.846,-0.578,22.26,0,109.5,13.61,-1.10,301.6
"2009-03-31 00:03:00",757783,16.55,342.2,4.642,0.763,4.395,99.55746,-1.828,-0.587,21.26,0,109.5,13.61,-1.08,304.2
"2009-03-31 00:03:30",757784,15.38,344.3,4.113,0.856,4.487,99.56369,-1.812,-0.539,20.98,0,109.5,13.61,-1.07,306.3
"2009-03-31 00:04:00",757785,14.93,342.8,4.166,0.711,4.353,99.56992,-1.796,-0.535,20.89,0,109.5,13.6,-1.05,304.8
"2009-03-31 00:04:30",757786,15.7,340.9,4.941,1.278,4.365,99.57955,-1.771,-0.532,21.03,0,109.5,13.6,-1.03,302.9
"2009-03-31 00:05:00",757787,16.73,343.4,3.966,0.619,4.574,99.58181,-1.766,-0.528,21.38,0,109.5,13.6,-1.02,305.4
"2009-03-31 00:05:30",757788,16.01,342.1,4.735,0.779,4.574,99.58154,-1.766,-0.517,21.37,0,109.5,13.6,-1.02,304.1
"2009-03-31 00:06:00",757789,15.6,343.3,4.395,1.093,4.637,99.57984,-1.771,-0.501,22.05,0,109.5,13.6,-1.02,305.3
"2009-03-31 00:06:30",757790,16.93,344.8,4.009,0.698,4.635,99.57787,-1.776,-0.485,21.33,0,109.5,13.6,-1.03,306.8
"2009-03-31 00:07:00",757791,16.76,345.2,4.008,0.826,4.62,99.5773,-1.777,-0.489,20.93,0,109.5,13.6,-1.03,307.2
"2009-03-31 00:07:30",757792,16.43,346,4.095,0.669,4.633,99.57617,-1.78,-0.49,20.16,0,109.5,13.6,-1.03,308.0
"2009-03-31 00:08:00",757793,16.27,346.1,3.911,0.787,4.608,99.57561,-1.781,-0.484,19.88,0,109.5,13.6,-1.04,308.1
"2009-03-31 00:08:30",757794,16,345.8,3.506,0.728,4.356,99.57449,-1.784,-0.489,20.06,0,109.5,13.6,-1.04,307.8
"2009-03-31 00:09:00",757795,16.18,344.6,3.523,0.635,4.584,99.57279,-1.789,-0.475,19.97,0,109.5,13.6,-1.04,306.6
"2009-03-31 00:09:30",757796,16.52,345.5,3.057,0.906,4.225,99.57279,-1.789,-0.457,19.92,0,109.5,13.6,-1.04,307.5
"2009-03-31 00:10:00",757797,16.79,348.8,3.962,0.716,4.548,99.57195,-1.791,-0.466,19.93,0,109.5,13.6,-1.04,310.8
"2009-03-31 00:10:30",757798,16.62,345.6,4.378,0.766,4.463,99.56828,-1.8,-0.473,20.12,0,109.5,13.6,-1.05,307.6
"2009-03-31 00:11:00",757799,17.21,344.6,4.666,1.08,4.662,99.56857,-1.799,-0.487,20.38,0,109.5,13.61,-1.05,306.6
"2009-03-31 00:11:30",757800,15.53,343.6,3.968,0.694,4.606,99.56603,-1.806,-0.479,20.36,0,109.5,13.61,-1.06,305.6
"2009-03-31 00:12:00",757801,15.77,345.2,4.219,0.729,4.463,99.56462,-1.809,-0.475,20.46,0,109.5,13.61,-1.06,307.2
"2009-03-31 00:12:30",757802,16.27,343.3,4.167,0.71,4.468,99.56406,-1.811,-0.469,20.55,0,109.5,13.61,-1.07,305.3
"2009-03-31 00:13:00",757803,16.13,343.9,5.547,0.895,4.758,99.56434,-1.81,-0.469,21.41,0,109.5,13.6,-1.06,305.9
"2009-03-31 00:13:30",757804,16.93,344.8,3.965,0.81,4.578,99.56377,-1.811,-0.473,21.28,0,109.5,13.6,-1.07,306.8
"2009-03-31 00:14:00",757805,17.83,345.1,4.105,0.796,4.663,99.5618,-1.817,-0.455,21.24,0,109.5,13.6,-1.07,307.1
"2009-03-31 00:14:30",757806,17.44,346.4,4.206,0.694,4.747,99.56152,-1.817,-0.444,21.15,0,109.5,13.6,-1.07,308.4
"2009-03-31 00:15:00",757807,17.41,349.3,2.662,0.959,4.699,99.56011,-1.821,-0.456,21.63,0,109.5,13.6,-1.08,311.3
"2009-03-31 00:15:30",757808,16.12,349.2,4.513,1.172,4.785,99.56124,-1.818,-0.466,22.35,0,109.5,13.6,-1.07,311.2
"2009-03-31 00:16:00",757809,14.95,352.9,3.979,0.897,4.746,99.55983,-1.822,-0.486,23.1,0,109.5,13.6,-1.08,314.9
"2009-03-31 00:16:30",757810,15.52,352.4,6.153,0.929,4.58,99.5536,-1.837,-0.48,22.87,0,109.5,13.6,-1.09,314.4
"2009-03-31 00:17:00",757811,16.12,348.6,4.014,1.089,4.575,99.54143,-1.868,-0.487,22.81,0,109.5,13.6,-1.12,310.6
"2009-03-31 00:17:30",757812,16.43,355,6.339,1.569,4.786,99.53605,-1.882,-0.49,22.5,0,109.5,13.6,-1.14,317.0
"2009-03-31 00:18:00",757813,12.09,5.052,6.689,2.774,4.741,99.52699,-1.905,-0.508,22.52,0,109.5,13.6,-1.16,327.1
"2009-03-31 00:18:30",757814,11.84,6.387,7.276,2.994,4.623,99.52671,-1.906,-0.521,22.23,0,109.5,13.6,-1.16,328.4
"2009-03-31 00:19:00",757815,15.46,5.89,6.114,3.015,4.648,99.51736,-1.93,-0.553,20.86,0,109.5,13.6,-1.18,327.9
"2009-03-31 00:19:30",757816,12.74,3.015,8.99,3.723,4.622,99.49755,-1.98,-0.565,21.79,0,109.5,13.6,-1.24,325.0
"2009-03-31 00:20:00",757817,14.59,5.82,5.471,3.332,4.491,99.49217,-1.994,-0.604,21.5,0,109.5,13.6,-1.25,327.8
"2009-03-31 00:20:30",757818,13.66,7.3,5.113,2.398,4.498,99.47575,-2.036,-0.623,20.98,0,109.5,13.6,-1.29,329.3
"2009-03-31 00:21:00",757819,16.13,2.568,5.104,2.309,4.74,99.45876,-2.079,-0.672,20.77,0,109.5,13.6,-1.33,324.6
"2009-03-31 00:21:30",757820,12.86,5.469,4.627,1.792,4.582,99.45592,-2.086,-0.701,21.04,0,109.5,13.6,-1.34,327.5
"2009-03-31 00:22:00",757821,10.11,10.21,3.659,1.539,4.399,99.43468,-2.14,-0.731,20.79,0,109.5,13.6,-1.40,332.2
"2009-03-31 00:22:30",757822,10.43,10.01,3.904,1.287,4.24,99.42818,-2.157,-0.759,19.74,0,109.5,13.6,-1.41,332.0
"2009-03-31 00:23:00",757823,9.77,12.55,3.911,0.712,4.373,99.41346,-2.195,-0.788,19.23,0,109.5,13.6,-1.45,334.5
"2009-03-31 00:23:30",757824,9.76,13.7,4.399,0.937,3.999,99.39675,-2.237,-0.822,19.2,0,109.5,13.61,-1.49,335.7
"2009-03-31 00:24:00",757825,10.17,11.69,3.579,1.06,3.799,99.39646,-2.238,-0.861,19.05,0,109.5,13.61,-1.49,333.7
"2009-03-31 00:24:30",757826,9.59,16.21,5.162,1.354,3.616,99.39446,-2.243,-0.887,19.3,0,109.5,13.61,-1.50,338.2
"2009-03-31 00:25:00",757827,9.11,18.15,7.638,1.545,3.65,99.38229,-2.274,-0.905,19.87,0,109.5,13.61,-1.53,340.1
"2009-03-31 00:25:30",757828,7.413,14.15,5.601,1.399,3.349,99.3735,-2.296,-0.921,20.56,0,109.5,13.61,-1.55,336.1
"2009-03-31 00:26:00",757829,9.72,13.12,7.244,1.112,3.398,99.36925,-2.307,-0.925,20.95,0,109.5,13.61,-1.56,335.1
"2009-03-31 00:26:30",757830,9.96,15.8,5.864,1.222,3.327,99.36812,-2.31,-0.961,20.59,0,109.5,13.61,-1.57,337.8
"2009-03-31 00:27:00",757831,8.82,14.7,4.976,1.427,3.749,99.37037,-2.304,-0.969,19.61,0,109.5,13.61,-1.56,336.7
"2009-03-31 00:27:30",757832,12.54,6.272,4.766,1.944,3.557,99.36271,-2.324,-0.987,19.75,0,109.5,13.61,-1.58,328.3
"2009-03-31 00:28:00",757833,10.1,9.64,5.24,2.45,3.549,99.34685,-2.364,-1.006,20.12,0,109.5,13.61,-1.62,331.6
"2009-03-31 00:28:30",757834,8.68,12.63,4.994,1.308,3.488,99.3409,-2.379,-1.036,20.37,0,109.5,13.61,-1.64,334.6
"2009-03-31 00:29:00",757835,9.12,13.07,4.157,1.133,3.949,99.34006,-2.382,-1.038,20.2,0,109.5,13.61,-1.64,335.1
"2009-03-31 00:29:30",757836,10.16,11.05,4.863,1.271,3.708,99.34315,-2.374,-1.053,20.28,0,109.5,13.62,-1.63,333.0
"2009-03-31 00:30:00",757837,11.5,6.754,3.721,1.777,3.75,99.34456,-2.37,-1.051,20.39,0,109.5,13.61,-1.63,328.8
"2009-03-31 00:30:30",757838,8.71,9.9,6.459,3.146,3.797,99.34539,-2.368,-1.079,20.73,0,109.5,13.62,-1.62,331.9
"2009-03-31 00:31:00",757839,11.09,8.62,9.09,3.648,3.639,99.33775,-2.387,-1.079,21.57,0,109.5,13.62,-1.64,330.6
"2009-03-31 00:31:30",757840,13.71,2.991,4.978,2.737,3.823,99.32784,-2.413,-1.083,22.42,0,109.5,13.62,-1.67,325.0
"2009-03-31 00:32:00",757841,15.09,0.797,4.339,2.434,4.032,99.32727,-2.414,-1.119,22.67,0,109.5,13.62,-1.67,322.8
"2009-03-31 00:32:30",757842,12.01,3.61,6.07,1.825,4.275,99.32472,-2.421,-1.096,21.86,0,109.5,13.62,-1.68,325.6
"2009-03-31 00:33:00",757843,9.68,7.572,4.88,2.091,4.314,99.31709,-2.44,-1.126,21.57,0,109.5,13.62,-1.70,329.6
"2009-03-31 00:33:30",757844,9.85,9.24,5.729,1.954,3.91,99.31311,-2.45,-1.141,21.25,0,109.5,13.62,-1.71,331.2
"2009-03-31 00:34:00",757845,7.672,12.77,5.176,1.46,3.887,99.31339,-2.45,-1.134,21.52,0,109.5,13.62,-1.71,334.8
"2009-03-31 00:34:30",757846,8.68,9.36,7.426,2.111,3.549,99.31367,-2.449,-1.145,21.82,0,109.5,13.62,-1.71,331.4
"2009-03-31 00:35:00",757847,8.23,10.92,5.225,1.491,3.562,99.3148,-2.446,-1.173,22.01,0,109.5,13.62,-1.70,332.9
"2009-03-31 00:35:30",757848,7.241,18.54,4.508,0.918,3.2,99.30769,-2.464,-1.178,21.43,0,109.5,13.62,-1.72,340.5
"2009-03-31 00:36:00",757849,9.69,21.81,4.952,1.221,3.331,99.29524,-2.496,-1.176,21.55,0,109.5,13.62,-1.75,343.8
"2009-03-31 00:36:30",757850,8.84,20.58,5.963,1.442,3.472,99.28561,-2.52,-1.193,21.5,0,109.5,13.62,-1.78,342.6
"2009-03-31 00:37:00",757851,8.58,17.66,4.504,0.769,3.689,99.28588,-2.52,-1.204,21.28,0,109.5,13.62,-1.78,339.7
"2009-03-31 00:37:30",757852,9.34,21.88,4.12,1.471,3.231,99.28616,-2.519,-1.211,21.4,0,109.5,13.62,-1.78,343.9
"2009-03-31 00:38:00",757853,9.48,23.6,4.788,1.791,3.381,99.28645,-2.518,-1.23,21.29,0,109.5,13.61,-1.78,345.6
"2009-03-31 00:38:30",757854,7.903,12.35,5.798,1.216,3.598,99.28645,-2.518,-1.213,21.3,0,109.5,13.62,-1.78,334.4
"2009-03-31 00:39:00",757855,8.68,11.24,7.631,2.647,3.457,99.28645,-2.518,-1.24,21.68,0,109.5,13.62,-1.78,333.2
"2009-03-31 00:39:30",757856,11.97,2.344,5.358,1.462,3.566,99.2856,-2.52,-1.242,22.61,0,109.5,13.62,-1.78,324.3
"2009-03-31 00:40:00",757857,7.741,13.91,7.051,1.418,3.501,99.27483,-2.548,-1.26,22.77,0,109.5,13.62,-1.80,335.9
"2009-03-31 00:40:30",757858,6.354,16.19,5.901,0.965,3.327,99.26463,-2.574,-1.264,22.54,0,109.5,13.62,-1.83,338.2
"2009-03-31 00:41:00",757859,7.105,14.58,6.109,1.315,3.091,99.25813,-2.59,-1.255,22.86,0,109.5,13.62,-1.85,336.6
"2009-03-31 00:41:30",757860,7.306,12.9,4.456,1.259,2.888,99.25246,-2.605,-1.293,22.52,0,109.5,13.62,-1.86,334.9
"2009-03-31 00:42:00",757861,8.52,9.97,3.434,1.51,2.819,99.25246,-2.605,-1.27,22.58,0,109.5,13.62,-1.86,332.0
"2009-03-31 00:42:30",757862,7.311,18.32,7.549,1.481,2.698,99.25246,-2.605,-1.299,23.17,0,109.4,13.63,-1.86,340.3
"2009-03-31 00:43:00",757863,7.043,18.31,7.023,1.188,2.8,99.25246,-2.605,-1.31,23.7,0,109.4,13.63,-1.86,340.3
"2009-03-31 00:43:30",757864,7.015,14.26,6.166,1.02,2.596,99.25246,-2.605,-1.305,24.21,0,109.5,13.63,-1.86,336.3
"2009-03-31 00:44:00",757865,9.97,6.595,5.539,1.984,2.568,99.24283,-2.629,-1.311,24.43,0,109.5,13.63,-1.89,328.6
"2009-03-31 00:44:30",757866,12,359.6,6.5,1.619,2.671,99.22754,-2.668,-1.327,24.96,0,109.4,13.63,-1.93,321.6
"2009-03-31 00:45:00",757867,11.57,359.6,3.355,1.316,3.054,99.22131,-2.684,-1.32,25.55,0,109.4,13.63,-1.94,321.6
"2009-03-31 00:45:30",757868,10.9,355.4,4.932,1.21,3.165,99.21848,-2.691,-1.349,25.74,0,109.4,13.63,-1.95,317.4
"2009-03-31 00:46:00",757869,11.83,353.4,3.752,0.822,3.426,99.21848,-2.691,-1.346,26.14,0,109.4,13.63,-1.95,315.4
"2009-03-31 00:46:30",757870,11.94,357,3.856,0.86,3.52,99.21848,-2.691,-1.348,25.79,0,109.4,13.63,-1.95,319.0
"2009-03-31 00:47:00",757871,9.04,4.25,3.674,1.671,3.591,99.21848,-2.691,-1.344,25.95,0,109.4,13.63,-1.95,326.2
"2009-03-31 00:47:30",757872,7.823,4.715,5.616,1.426,3.507,99.21848,-2.691,-1.35,26.67,0,109.4,13.63,-1.95,326.7
"2009-03-31 00:48:00",757873,10.63,3.045,7.555,1.708,3.411,99.21735,-2.694,-1.383,26.37,0,109.4,13.63,-1.95,325.0
"2009-03-31 00:48:30",757874,7.142,20.71,6.442,1.244,3.411,99.20772,-2.719,-1.37,24.79,0,109.4,13.63,-1.98,342.7
"2009-03-31 00:49:00",757875,7.468,11.87,6.272,1.993,3.284,99.19611,-2.748,-1.382,24.33,0,109.4,13.63,-2.01,333.9
"2009-03-31 00:49:30",757876,6.409,15.12,6.791,1.183,2.958,99.18734,-2.771,-1.383,24.9,0,109.4,13.63,-2.03,337.1
"2009-03-31 00:50:00",757877,6.359,14.58,7.667,1.516,2.75,99.18563,-2.775,-1.406,24.95,0,109.4,13.63,-2.03,336.6
"2009-03-31 00:50:30",757878,6.705,18,7.103,1.337,2.594,99.18619,-2.774,-1.4,23.93,0,109.4,13.63,-2.03,340.0
"2009-03-31 00:51:00",757879,5.262,17.55,6.247,0.937,2.245,99.18591,-2.774,-1.42,23.91,0,109.4,13.63,-2.03,339.5
"2009-03-31 00:51:30",757880,6.759,21.33,5.106,1.02,2.138,99.18929,-2.766,-1.439,23.55,0,109.4,13.63,-2.02,343.3
"2009-03-31 00:52:00",757881,7.119,21.96,4.199,1.12,1.809,99.19012,-2.764,-1.442,23.08,0,109.4,13.63,-2.02,344.0
"2009-03-31 00:52:30",757882,8.42,23.73,4.368,1.606,1.682,99.19377,-2.754,-1.442,23.44,0,109.4,13.63,-2.01,345.7
"2009-03-31 00:53:00",757883,8.91,17.68,7.043,1.031,2.075,99.19433,-2.753,-1.461,23.32,0,109.4,13.63,-2.01,339.7
"2009-03-31 00:53:30",757884,6.832,17.32,6.293,1.132,2.313,99.19118,-2.761,-1.457,23.4,0,109.4,13.63,-2.02,339.3
"2009-03-31 00:54:00",757885,7.962,20.18,4.541,1.153,2.377,99.18408,-2.779,-1.449,23.17,0,109.4,13.63,-2.04,342.2
"2009-03-31 00:54:30",757886,7.44,18.6,4.315,0.897,2.372,99.18095,-2.787,-1.463,23.22,0,109.4,13.63,-2.04,340.6
"2009-03-31 00:55:00",757887,7.523,21.86,3.935,0.763,2.386,99.17414,-2.804,-1.454,23.06,0,109.4,13.63,-2.06,343.9
"2009-03-31 00:55:30",757888,7.883,17.79,7.23,1.189,2.41,99.17243,-2.809,-1.473,23.16,0,109.4,13.63,-2.07,339.8
"2009-03-31 00:56:00",757889,7.95,18.63,4.785,1.254,2.499,99.17214,-2.809,-1.484,23.15,0,109.4,13.63,-2.07,340.6
"2009-03-31 00:56:30",757890,8.22,19.23,5.509,1.243,2.353,99.17299,-2.807,-1.491,23.05,0,109.4,13.63,-2.07,341.2
"2009-03-31 00:57:00",757891,6.952,21.14,3.367,1.245,2.468,99.17411,-2.804,-1.494,23.44,0,109.4,13.63,-2.06,343.1
"2009-03-31 00:57:30",757892,8.13,23.34,3.807,1.531,2.306,99.17636,-2.799,-1.494,23.91,0,109.4,13.63,-2.06,345.3
"2009-03-31 00:58:00",757893,8.14,18.56,5.285,1.095,2.425,99.17636,-2.799,-1.517,24.14,0,109.4,13.64,-2.06,340.6
"2009-03-31 00:58:30",757894,8.28,15.89,5.041,1.169,2.693,99.17324,-2.807,-1.509,23.58,0,109.4,13.64,-2.06,337.9
"2009-03-31 00:59:00",757895,8.28,19.67,4.329,1.194,2.903,99.15823,-2.845,-1.509,23.5,0,109.4,13.64,-2.10,341.7
"2009-03-31 00:59:30",757896,9.29,12.52,5.229,1.222,2.881,99.15199,-2.861,-1.517,23.77,0,109.4,13.64,-2.12,334.5
"2009-03-31 01:00:00",757897,8.52,13.97,4.743,0.935,3,99.14633,-2.875,-1.508,23.43,0,109.4,13.64,-2.13,336.0
"2009-03-31 01:00:30",757898,9.91,9.87,5.123,1.649,3.097,99.14491,-2.879,-1.523,23.34,0,109.4,13.64,-2.14,331.9
"2009-03-31 01:01:00",757899,12.99,1.014,4.663,1.392,3.335,99.14436,-2.88,-1.528,23.11,0,109.4,13.64,-2.14,323.0
"2009-03-31 01:01:30",757900,14.35,0.312,3.776,1.283,3.338,99.14689,-2.874,-1.542,22.98,0,109.4,13.64,-2.13,322.3
"2009-03-31 01:02:00",757901,11.3,3.161,3.935,1.961,3.541,99.15254,-2.859,-1.543,22.85,0,109.4,13.64,-2.12,325.2
"2009-03-31 01:02:30",757902,8.46,8.33,3.979,1.714,3.487,99.15904,-2.843,-1.557,22.91,0,109.4,13.64,-2.10,330.3
"2009-03-31 01:03:00",757903,9.83,5.904,5.766,2.132,3.835,99.16357,-2.831,-1.541,23.04,0,109.4,13.64,-2.09,327.9
"2009-03-31 01:03:30",757904,14.1,357.6,3.941,0.94,3.476,99.17007,-2.815,-1.544,23.02,0,109.4,13.64,-2.07,319.6
"2009-03-31 01:04:00",757905,12.85,359.4,4.024,1.197,3.601,99.17376,-2.805,-1.543,23.06,0,109.4,13.64,-2.06,321.4
"2009-03-31 01:04:30",757906,13.82,355.6,6.107,0.945,3.641,99.1766,-2.798,-1.559,23.22,0,109.4,13.64,-2.06,317.6
"2009-03-31 01:05:00",757907,12.97,356.1,5.99,1.39,3.933,99.17915,-2.792,-1.558,23.32,0,109.4,13.64,-2.05,318.1
"2009-03-31 01:05:30",757908,10.96,360,5.424,1.474,4.027,99.18027,-2.789,-1.557,23.4,0,109.4,13.64,-2.05,322.0
"2009-03-31 01:06:00",757909,10.17,3.651,4.489,1.817,3.854,99.18281,-2.782,-1.533,23.59,0,109.4,13.64,-2.04,325.7
"2009-03-31 01:06:30",757910,10.79,2.933,2.869,1.172,3.71,99.18394,-2.779,-1.556,23.52,0,109.4,13.64,-2.04,324.9
"2009-03-31 01:07:00",757911,9.98,3.643,4.003,1.123,3.915,99.18394,-2.779,-1.522,23.69,0,109.4,13.64,-2.04,325.6
"2009-03-31 01:07:30",757912,7.058,15.1,8.22,1.483,3.514,99.18309,-2.782,-1.535,23.89,0,109.4,13.64,-2.04,337.1
"2009-03-31 01:08:00",757913,7.157,20.86,4.618,1.301,3.167,99.18111,-2.787,-1.526,24.37,0,109.4,13.64,-2.04,342.9
"2009-03-31 01:08:30",757914,10.64,8.27,5.674,1.686,3.379,99.17629,-2.799,-1.526,24.14,0,109.4,13.64,-2.06,330.3
"2009-03-31 01:09:00",757915,9.5,9.45,4.101,1.38,3.57,99.16723,-2.822,-1.517,24.15,0,109.4,13.64,-2.08,331.5
"2009-03-31 01:09:30",757916,8.45,11.95,4.683,1.154,3.337,99.16128,-2.837,-1.531,24.46,0,109.4,13.64,-2.10,334.0
"2009-03-31 01:10:00",757917,10.46,15.74,3.783,1.807,3.444,99.15647,-2.849,-1.533,24.47,0,109.4,13.64,-2.11,337.7
"2009-03-31 01:10:30",757918,11.32,9.24,5.811,1.407,3.524,99.1525,-2.859,-1.533,24.52,0,109.4,13.64,-2.12,331.2
"2009-03-31 01:11:00",757919,9.55,16.45,4.065,1.491,3.549,99.15052,-2.865,-1.531,24.26,0,109.4,13.64,-2.12,338.5
"2009-03-31 01:11:30",757920,10.23,12.48,4.875,1.248,3.536,99.15024,-2.865,-1.538,24.28,0,109.4,13.64,-2.12,334.5
"2009-03-31 01:12:00",757921,9.96,11,4.541,1.497,3.575,99.15024,-2.865,-1.549,24.18,0,109.4,13.64,-2.12,333.0
"2009-03-31 01:12:30",757922,11.54,7.338,4.659,2.226,3.598,99.15024,-2.865,-1.553,23.86,0,109.4,13.64,-2.12,329.3
"2009-03-31 01:13:00",757923,11.13,14.28,7.978,1.396,3.841,99.15024,-2.865,-1.562,23.85,0,109.4,13.64,-2.12,336.3
"2009-03-31 01:13:30",757924,10.16,23.58,5.913,1.719,3.606,99.15024,-2.865,-1.564,24.8,0,109.4,13.64,-2.12,345.6
"2009-03-31 01:14:00",757925,10.07,17.76,4.889,1.396,3.967,99.15024,-2.865,-1.543,24.95,0,109.4,13.64,-2.12,339.8
"2009-03-31 01:14:30",757926,10.8,21.77,3.555,1.539,3.75,99.15024,-2.865,-1.554,24.47,0,109.4,13.65,-2.12,343.8
"2009-03-31 01:15:00",757927,10.04,16.63,4.851,0.877,3.925,99.15024,-2.865,-1.576,24.25,0,109.4,13.65,-2.12,338.6
"2009-03-31 01:15:30",757928,9.61,13.49,3.923,0.958,3.699,99.15024,-2.865,-1.582,24.23,0,109.4,13.65,-2.12,335.5
"2009-03-31 01:16:00",757929,10.45,14.69,7.263,1.823,3.639,99.15024,-2.865,-1.565,24.35,0,109.4,13.65,-2.12,336.7
"2009-03-31 01:16:30",757930,11.31,20.46,6.99,1.933,3.632,99.15024,-2.865,-1.578,24.36,0,109.4,13.65,-2.12,342.5
"2009-03-31 01:17:00",757931,9.96,19.17,5.048,1.867,3.805,99.15024,-2.865,-1.556,24.79,0,109.4,13.65,-2.12,341.2
"2009-03-31 01:17:30",757932,10.82,25.26,5.138,1.505,3.637,99.15024,-2.865,-1.564,25.09,0,109.4,13.65,-2.12,347.3
"2009-03-31 01:18:00",757933,9.29,24.47,5.096,1.5,3.754,99.15024,-2.865,-1.57,25.42,0,109.4,13.65,-2.12,346.5
"2009-03-31 01:18:30",757934,11.42,27.63,3.938,1.828,3.824,99.15024,-2.865,-1.57,25.58,0,109.4,13.65,-2.12,349.6
"2009-03-31 01:19:00",757935,9.57,19.58,6.341,1.534,3.885,99.15024,-2.865,-1.587,25.92,0,109.4,13.65,-2.12,341.6
"2009-03-31 01:19:30",757936,9.48,17.43,5.421,1.057,3.706,99.15024,-2.865,-1.583,25.95,0,109.4,13.65,-2.12,339.4
"2009-03-31 01:20:00",757937,7.72,17.17,6.209,1.329,3.551,99.15024,-2.865,-1.567,26.31,0,109.4,13.65,-2.12,339.2
"2009-03-31 01:20:30",757938,8.29,19.92,6.131,1.36,3.364,99.14571,-2.877,-1.579,26.84,0,109.4,13.65,-2.13,341.9
"2009-03-31 01:21:00",757939,8.83,18.49,4.351,0.954,3.412,99.13097,-2.914,-1.594,26.38,0,109.4,13.65,-2.17,340.5
"2009-03-31 01:21:30",757940,10.19,9.02,3.886,1.407,3.267,99.12049,-2.941,-1.598,25.24,0,109.4,13.65,-2.20,331.0
"2009-03-31 01:22:00",757941,9.51,16.31,7.35,1.537,3.449,99.11624,-2.952,-1.608,24.97,0,109.4,13.65,-2.21,338.3
"2009-03-31 01:22:30",757942,9.34,11.23,5.185,1.195,3.292,99.11653,-2.951,-1.593,25.72,0,109.4,13.65,-2.21,333.2
"2009-03-31 01:23:00",757943,10.51,9.47,5.425,1.936,3.499,99.11624,-2.952,-1.601,25.47,0,109.3,13.65,-2.21,331.5
"2009-03-31 01:23:30",757944,9.27,12.5,3.843,0.994,3.427,99.11653,-2.951,-1.625,25.11,0,109.4,13.65,-2.21,334.5
"2009-03-31 01:24:00",757945,9.01,16.39,6.564,1.551,3.355,99.11793,-2.948,-1.627,25.14,0,109.3,13.65,-2.21,338.4
"2009-03-31 01:24:30",757946,9.95,13.74,4.365,1.009,3.344,99.11709,-2.95,-1.614,25.51,0,109.4,13.65,-2.21,335.7
"2009-03-31 01:25:00",757947,10.93,10.39,4.27,0.9,3.628,99.11793,-2.948,-1.625,25.72,0,109.3,13.65,-2.21,332.4
"2009-03-31 01:25:30",757948,14.78,2.081,3.455,1.741,3.621,99.11905,-2.945,-1.64,25.71,0,109.4,13.65,-2.20,324.1
"2009-03-31 01:26:00",757949,15.74,1.393,3.297,1.002,3.846,99.1199,-2.943,-1.622,25.3,0,109.4,13.65,-2.20,323.4
"2009-03-31 01:26:30",757950,12.85,6.19,4.012,1.667,4.056,99.12017,-2.942,-1.661,24.62,0,109.4,13.65,-2.20,328.2
"2009-03-31 01:27:00",757951,10.39,13.44,5.546,2.052,4.286,99.12298,-2.935,-1.656,25.29,0,109.4,13.65,-2.19,335.4
"2009-03-31 01:27:30",757952,11.98,10.43,5.352,1.653,4.18,99.12411,-2.932,-1.64,25.01,0,109.4,13.65,-2.19,332.4
"2009-03-31 01:28:00",757953,12.29,11.46,6.969,1.956,4.121,99.12635,-2.926,-1.648,25.24,0,109.4,13.65,-2.18,333.5
"2009-03-31 01:28:30",757954,9.42,18.13,6.078,1.803,4.04,99.12776,-2.922,-1.654,25.55,0,109.4,13.65,-2.18,340.1
"2009-03-31 01:29:00",757955,10.08,19.79,5.634,1.571,4.089,99.13253,-2.91,-1.658,25.99,0,109.4,13.65,-2.17,341.8
"2009-03-31 01:29:30",757956,10.48,19.07,4.044,1.285,3.822,99.13225,-2.911,-1.637,26.18,0,109.4,13.65,-2.17,341.1
"2009-03-31 01:30:00",757957,10.43,19.1,5.617,1.032,3.906,99.13084,-2.915,-1.644,25.78,0,109.4,13.65,-2.17,341.1
"2009-03-31 01:30:30",757958,10.44,13.49,5.134,2.089,3.743,99.13422,-2.906,-1.665,25.97,0,109.4,13.66,-2.16,335.5
"2009-03-31 01:31:00",757959,11.93,12.01,4.374,0.862,3.955,99.13477,-2.905,-1.65,25.7,0,109.4,13.66,-2.16,334.0
"2009-03-31 01:31:30",757960,9.76,13.66,5.2,1.125,3.88,99.13197,-2.912,-1.663,25.14,0,109.4,13.66,-2.17,335.7
"2009-03-31 01:32:00",757961,14.21,4.357,4.017,1.829,3.828,99.13534,-2.903,-1.656,25.39,0,109.4,13.66,-2.16,326.4
"2009-03-31 01:32:30",757962,11.6,10.83,6.074,1.856,3.993,99.13421,-2.906,-1.658,25.54,0,109.4,13.66,-2.16,332.8
"2009-03-31 01:33:00",757963,14.11,6.434,4.002,1.746,4.235,99.13278,-2.91,-1.656,25.7,0,109.4,13.66,-2.17,328.4
"2009-03-31 01:33:30",757964,14.61,5.855,2.94,1.189,4.223,99.1288,-2.92,-1.673,25.26,0,109.4,13.66,-2.18,327.9
"2009-03-31 01:34:00",757965,14.85,6.272,2.559,1.775,4.286,99.12486,-2.93,-1.679,25.16,0,109.4,13.66,-2.19,328.3
"2009-03-31 01:34:30",757966,17.11,3.788,3.537,1.587,4.503,99.12569,-2.928,-1.663,24.26,0,109.4,13.66,-2.19,325.8
"2009-03-31 01:35:00",757967,16.4,4.44,2.899,1.727,4.692,99.1291,-2.919,-1.679,24.07,0,109.4,13.66,-2.18,326.4
"2009-03-31 01:35:30",757968,13.86,6.446,3.825,2.064,4.708,99.13335,-2.908,-1.678,24.26,0,109.4,13.66,-2.17,328.4
"2009-03-31 01:36:00",757969,15.87,4.995,5.1,2.612,4.752,99.13646,-2.9,-1.684,24.51,0,109.4,13.66,-2.16,327.0
"2009-03-31 01:36:30",757970,16.85,3.034,2.983,2.091,4.714,99.13562,-2.902,-1.672,24.38,0,109.4,13.66,-2.16,325.0
"2009-03-31 01:37:00",757971,14.6,7.084,4.708,1.17,4.86,99.13815,-2.896,-1.676,24.53,0,109.4,13.66,-2.15,329.1
"2009-03-31 01:37:30",757972,10.44,15.65,6.345,1.554,4.521,99.13899,-2.894,-1.704,25.28,0,109.4,13.66,-2.15,337.6
"2009-03-31 01:38:00",757973,10.23,14.74,5.698,1.624,4.273,99.13332,-2.908,-1.679,26.14,0,109.4,13.66,-2.17,336.7
"2009-03-31 01:38:30",757974,11.59,7.361,3.57,1.231,4.11,99.12141,-2.939,-1.719,26.23,0,109.4,13.66,-2.20,329.4
"2009-03-31 01:39:00",757975,10.08,11.72,5.236,1.287,4.295,99.11347,-2.959,-1.684,26.55,0,109.4,13.66,-2.22,333.7
"2009-03-31 01:39:30",757976,10.94,10.96,4.391,1.564,3.905,99.10892,-2.97,-1.704,26.72,0,109.4,13.66,-2.23,333.0
"2009-03-31 01:40:00",757977,14.51,2.244,4.339,1.412,3.923,99.10808,-2.973,-1.713,27.08,0,109.4,13.66,-2.23,324.2
"2009-03-31 01:40:30",757978,10.12,11.68,5.833,1.845,3.885,99.11031,-2.967,-1.737,27.14,0,109.4,13.66,-2.23,333.7
"2009-03-31 01:41:00",757979,12.49,14.88,4.502,1.552,3.971,99.09078,-3.017,-1.737,26.98,0,109.4,13.66,-2.28,336.9
"2009-03-31 01:41:30",757980,11.78,8.22,3.688,1.469,3.928,99.07887,-3.047,-1.756,26.64,0,109.4,13.66,-2.31,330.2
"2009-03-31 01:42:00",757981,11.52,7.281,4.014,2.23,3.827,99.07745,-3.051,-1.754,26.71,0,109.4,13.66,-2.31,329.3
"2009-03-31 01:42:30",757982,10.22,10.72,4.949,1.549,3.878,99.07774,-3.05,-1.779,27.07,0,109.4,13.66,-2.31,332.7
"2009-03-31 01:43:00",757983,11.84,6.677,4.827,1.755,3.993,99.07942,-3.046,-1.78,27.21,0,109.4,13.66,-2.30,328.7
"2009-03-31 01:43:30",757984,9.82,14.11,6.889,1.21,3.75,99.07037,-3.069,-1.796,27.28,0,109.4,13.66,-2.33,336.1
"2009-03-31 01:44:00",757985,9.39,11.65,4.862,1.861,3.665,99.05988,-3.095,-1.807,28.02,0,109.4,13.66,-2.35,333.6
"2009-03-31 01:44:30",757986,10.73,12.01,5.618,1.732,3.641,99.05251,-3.114,-1.826,27.36,0,109.4,13.66,-2.37,334.0
"2009-03-31 01:45:00",757987,10.83,14.81,3.943,0.936,3.736,99.04458,-3.134,-1.839,27.29,0,109.4,13.66,-2.39,336.8
"2009-03-31 01:45:30",757988,10.34,12.74,4.002,0.956,3.638,99.04204,-3.141,-1.867,27.4,0,109.4,13.66,-2.40,334.7
"2009-03-31 01:46:00",757989,10.92,9.92,3.578,0.911,3.678,99.04317,-3.138,-1.848,27.35,0,109.4,13.66,-2.40,331.9
"2009-03-31 01:46:30",757990,10.86,11.55,5.281,0.927,3.576,99.04345,-3.137,-1.866,27.17,0,109.4,13.66,-2.40,333.5